Location: Pian di Sc�
(43.6333°N, 11.5500°E)
Time: 14:24:54
(UTC+00:00)

CZ-2D R/B - Pass Details

Date: 07 August 2020
Orbit: 792 x 845 km, 98.7° (Epoch: 24 September)

Event Time Altitude Azimuth Distance (km) Brightness Sun altitude
Rises 02:10:18 0° 2° (N) 3,408 6.1 -18.5°
Reaches altitude 10° 02:13:06 10° 348° (NNW) 2,473 5.1 -18.1°
Maximum altitude 02:17:19 23° 298° (WNW) 1,711 3.6 -17.6°
Enters shadow 02:19:23 19° 267° (W) 1,918 3.6 -17.3°
